Theta_e
324 323 325 325 320 320 321 324 326 327 327 327 329 338 341 340 343 344 346 344 340 325 322 323 322 322 328 338 341 342 342 336 331 327 324 320 325 327 322 317 317 317 317 318 319 319 318 319 320
324 325 326 326 320 320 321 323 325 323 324 326 328 330 338 338 343 345 347 345 341 333 322 323 323 322 325 332 339 342 339 333 328 323 320 318 320 320 317 317 318 319 319 319 320 320 320 320 321
323 325 328 322 319 320 322 324 324 324 325 325 326 328 335 336 338 341 346 344 344 341 324 322 324 322 322 328 336 341 336 329 325 321 318 317 318 318 318 319 320 320 320 320 320 321 321 321 321
321 326 328 324 323 323 322 323 322 322 325 325 325 329 334 335 336 339 344 348 344 343 328 321 324 323 321 323 326 337 332 327 324 320 318 318 319 319 319 320 321 320 320 320 321 321 321 321 320
320 322 323 326 324 323 324 326 324 322 323 324 325 327 333 331 334 341 342 342 343 344 340 320 321 322 322 323 323 327 331 327 323 321 319 319 319 320 320 320 320 320 321 320 320 320 320 320 320
319 323 323 325 325 327 327 327 324 323 323 324 325 325 330 328 330 338 342 342 342 342 343 321 321 321 323 323 323 323 330 328 325 321 320 320 320 320 320 320 320 320 320 320 320 320 320 320 320
316 318 320 324 327 327 327 327 322 322 323 324 328 328 329 330 329 328 341 340 343 346 342 325 320 320 322 324 323 323 323 329 327 324 320 320 320 320 320 320 320 320 320 320 320 319 320 319 319
318 316 320 322 325 327 328 327 325 324 324 326 328 328 329 329 328 328 330 341 343 346 344 337 320 320 321 325 325 323 323 323 328 325 321 320 320 320 320 319 319 320 319 319 319 319 319 319 319
318 317 318 320 324 324 325 325 326 326 329 326 328 328 328 328 328 328 329 332 345 347 347 343 321 320 321 323 325 325 324 323 323 325 322 320 320 320 319 319 319 319 319 319 319 319 319 318 318
315 316 318 319 320 321 322 322 324 326 325 327 327 328 328 327 328 327 328 328 340 351 348 344 331 320 322 323 324 326 324 323 323 323 322 320 320 320 319 319 319 319 319 319 319 319 319 319 318
316 315 318 320 321 321 321 322 323 324 325 327 327 328 328 327 327 326 327 332 332 343 348 348 343 330 321 322 323 325 325 323 323 322 321 321 320 320 320 319 319 319 320 319 319 319 319 319 321
313 317 318 320 321 322 321 322 322 323 328 329 329 328 328 327 325 325 325 326 329 332 342 349 345 342 321 321 323 323 325 323 322 322 321 321 320 320 320 320 320 321 324 327 330 323 325 324 327
313 315 317 319 321 321 322 322 322 322 325 329 329 328 328 327 326 324 324 326 326 326 339 345 347 342 335 321 329 330 324 322 322 321 321 321 321 320 320 321 323 325 326 330 332 329 334 333 331
316 315 316 317 318 320 320 320 321 321 322 325 326 326 327 327 325 323 324 324 327 326 332 343 346 344 332 324 332 341 340 329 321 320 321 321 320 320 320 321 322 324 325 325 328 334 337 337 336
316 314 314 315 317 318 319 318 319 321 321 322 321 321 325 323 323 322 322 323 325 325 337 341 346 345 343 338 346 343 342 342 334 321 320 320 320 320 321 322 324 326 329 330 335 338 338 337 337
313 314 313 313 315 317 317 316 318 320 321 321 321 321 320 321 323 322 322 322 324 325 325 343 346 345 343 340 343 346 347 343 340 338 333 329 329 332 326 326 326 331 333 331 338 337 337 337 335
312 312 313 314 315 315 315 316 317 320 320 318 320 320 320 320 321 321 321 323 323 326 326 326 341 346 344 342 341 341 346 345 345 342 341 341 341 341 340 337 331 333 331 331 333 329 332 328 328
313 313 314 315 316 315 315 315 316 319 318 317 318 319 319 320 320 320 320 323 323 324 325 322 325 340 346 342 341 338 341 346 343 346 342 344 344 345 343 342 340 336 330 329 327 332 335 327 324
314 315 315 316 317 316 314 315 317 317 318 317 318 318 319 319 319 319 321 322 322 323 322 322 321 338 345 344 341 337 338 341 343 343 344 340 344 344 343 341 339 336 329 328 327 326 329 326 324
315 316 315 316 316 315 315 317 317 317 316 318 318 319 318 319 319 319 320 322 321 321 321 321 317 331 344 345 342 341 334 334 333 332 333 342 343 342 342 341 337 334 331 327 326 326 326 327 326
314 315 315 314 315 315 315 315 317 316 316 317 317 317 319 319 319 319 320 320 320 319 319 318 317 316 330 344 342 339 338 335 336 336 337 332 334 333 334 335 337 333 334 334 330 328 326 326 326
313 315 315 315 315 313 315 314 314 316 315 316 317 317 317 319 319 319 319 319 319 318 319 318 321 323 320 322 339 344 339 332 330 333 335 337 334 333 337 337 337 333 334 337 334 335 331 328 329
314 315 314 315 313 312 313 312 313 314 315 315 316 317 317 317 317 319 320 320 318 319 319 321 321 319 317 324 324 336 341 341 341 337 337 337 339 332 336 340 338 341 339 340 338 338 338 334 333
316 315 314 313 312 312 313 313 314 314 315 316 316 317 317 317 318 319 319 318 319 319 320 319 318 317 317 315 322 328 327 333 340 338 336 338 337 336 337 340 336 337 336 337 340 335 334 334 332
314 313 313 314 313 313 313 316 314 314 316 316 316 316 316 316 316 318 318 317 317 318 318 318 319 318 319 319 319 317 316 325 329 332 333 334 332 334 334 340 337 334 332 331 335 333 334 333 332
319 318 315 316 318 317 317 321 319 319 319 317 316 316 316 316 316 317 317 317 317 317 316 317 317 318 318 318 318 320 320 318 316 316 317 322 324 330 338 335 334 333 331 332 333 334 333 332 332
319 318 317 316 314 317 317 317 317 317 319 316 316 316 316 317 317 318 319 318 318 317 317 317 317 317 316 316 316 316 316 316 316 314 312 313 314 319 330 334 337 339 336 337 337 334 333 333 333
317 317 319 319 320 319 317 318 316 321 319 318 317 316 316 317 318 318 318 319 318 317 317 317 316 316 316 316 316 316 315 315 315 315 315 313 312 312 324 332 333 335 339 339 332 333 332 337 336
315 317 318 317 319 318 319 317 318 319 318 317 316 317 317 317 317 317 317 317 317 317 317 317 316 317 319 318 317 317 316 316 317 318 318 317 315 315 312 313 317 328 332 335 342 340 336 337 340
314 316 316 320 320 317 315 315 317 317 317 318 316 317 317 316 316 316 316 316 316 317 317 317 316 316 316 317 319 317 317 317 318 318 321 319 319 316 315 313 314 315 319 324 336 345 343 344 345
Wind_Speed
10 12 9 8 2 2 4 10 10 16 9 6 16 17 17 16 8 8 7 14 10 17 21 26 24 25 27 26 23 21 18 18 19 19 20 21 20 19 18 17 16 15 14 13 13 12 11 11 11
9 13 6 3 2 1 6 17 11 4 10 9 9 20 22 16 29 20 15 9 9 9 19 26 26 26 27 27 24 22 20 19 19 20 20 21 21 19 18 17 16 15 13 12 12 11 10 10 10
10 9 4 3 3 6 6 4 3 10 14 19 6 6 13 11 17 11 7 7 8 5 15 26 28 28 29 29 26 23 21 20 20 20 20 21 21 19 18 17 15 14 12 11 10 9 9 8 8
8 4 6 1 8 14 15 10 10 9 12 8 13 9 22 15 10 15 4 7 2 4 15 23 28 29 31 33 31 26 24 22 20 20 20 21 20 19 17 16 14 13 11 9 8 7 7 6 6
9 6 2 4 8 12 15 17 4 7 12 19 11 7 19 19 18 14 12 5 6 7 10 23 28 29 31 33 33 31 28 24 22 21 20 19 19 17 16 14 13 11 9 8 6 5 4 4 3
6 4 3 5 9 16 17 21 7 2 9 19 15 6 15 15 15 10 7 11 14 13 10 25 28 30 32 34 33 32 29 27 24 22 21 20 18 17 15 13 12 9 8 6 4 3 2 1 0
5 2 7 10 15 19 19 17 8 8 6 12 11 4 8 11 11 10 6 2 12 22 17 25 29 31 33 33 34 33 31 27 25 23 22 20 19 17 15 13 11 9 7 5 4 3 3 4 4
16 3 13 13 13 17 25 13 16 13 9 15 3 2 4 7 8 6 11 3 5 28 23 20 30 33 35 34 33 32 30 28 26 24 23 22 20 17 15 13 11 8 6 6 5 5 6 7 8
21 9 12 15 18 16 34 8 18 20 14 20 12 9 12 9 2 5 9 11 6 28 26 20 31 34 36 36 34 32 30 28 27 25 24 22 20 18 16 13 11 9 8 8 8 8 10 10 11
10 10 16 9 10 15 28 22 18 6 8 14 14 21 3 3 6 7 4 11 15 24 26 20 27 34 36 36 36 34 33 31 29 26 24 23 21 19 16 13 11 10 10 11 11 11 13 14 14
19 16 11 15 28 35 32 31 32 11 8 14 19 18 11 6 9 7 3 6 3 16 8 22 19 29 35 37 36 35 35 33 31 28 25 23 21 19 17 15 14 13 12 13 15 15 17 16 14
12 22 25 26 33 30 16 27 21 19 22 41 31 22 7 4 4 1 2 3 3 0 9 22 21 20 33 34 32 33 33 34 33 30 27 26 24 22 19 17 15 13 10 9 11 12 13 14 11
11 13 27 30 34 34 31 23 18 17 11 26 15 14 16 12 11 10 7 8 11 12 12 13 25 22 25 35 28 23 29 32 32 31 30 28 26 24 21 19 15 11 11 9 9 10 9 8 10
14 19 19 29 27 26 14 20 17 17 16 8 10 15 21 20 19 17 17 16 8 13 16 15 25 23 26 31 28 21 19 25 31 31 30 30 28 26 25 22 18 15 12 11 12 14 15 17 17
20 9 10 12 9 5 12 12 18 17 20 21 15 16 19 19 18 18 18 21 20 13 12 23 20 20 21 28 19 21 22 19 23 30 30 29 28 27 25 24 22 19 17 17 16 18 20 19 21
8 8 6 7 8 13 6 19 14 20 23 25 20 21 25 22 26 24 18 19 17 15 19 21 25 26 23 25 23 21 19 23 22 20 21 23 24 23 25 26 25 21 19 21 24 23 25 25 27
5 9 9 11 14 14 13 24 13 22 24 21 21 19 27 33 22 20 18 15 24 23 27 18 18 30 29 26 29 33 24 24 19 27 17 22 21 22 22 22 25 25 22 22 20 24 24 24 25
8 8 11 16 16 13 23 23 20 24 25 16 17 14 4 7 12 12 8 19 26 24 26 22 22 22 29 29 29 32 40 32 31 21 25 29 20 21 22 24 26 27 26 26 24 26 29 28 27
16 17 18 12 12 13 8 8 5 6 6 9 17 16 12 14 12 7 11 22 22 19 23 27 22 20 27 30 30 34 38 41 40 37 29 27 28 26 25 28 27 27 28 27 25 26 30 28 30
14 12 8 8 14 11 10 8 6 6 6 12 16 19 24 24 21 17 19 20 16 16 16 17 16 23 20 29 30 32 35 30 37 37 38 42 32 26 28 30 34 30 29 25 22 22 27 32 30
8 5 5 12 15 15 8 7 4 5 11 25 33 30 23 32 28 28 30 24 20 16 14 17 14 15 26 26 29 31 27 27 23 28 29 24 22 24 38 36 35 30 30 30 24 22 26 29 32
8 9 14 16 10 6 4 6 7 5 11 13 28 36 33 23 28 32 34 32 27 21 18 18 17 15 14 21 27 31 32 35 32 40 37 33 30 28 26 36 37 31 30 30 26 24 21 27 29
11 9 12 5 6 6 9 5 7 6 15 18 11 27 36 34 29 23 33 29 20 17 15 16 12 14 16 15 16 24 30 40 38 33 36 33 27 47 37 27 28 20 27 27 24 26 19 19 26
8 3 8 7 2 5 6 6 19 14 17 19 10 22 21 21 20 20 19 21 20 14 15 11 11 10 11 13 16 16 16 19 24 30 30 33 27 31 34 37 34 27 26 28 25 29 28 31 41
8 2 3 3 5 12 5 10 21 11 16 23 14 25 22 17 17 23 24 22 18 17 12 10 9 5 6 5 8 10 14 16 18 21 24 29 31 36 39 38 38 39 35 42 43 43 43 42 49
19 2 3 6 4 8 10 6 7 7 14 18 19 22 22 21 22 22 22 21 18 13 16 16 11 11 7 7 10 10 14 15 16 18 19 21 28 29 27 34 44 46 49 42 49 49 56 56 55
10 5 9 9 9 2 4 10 15 18 7 7 11 15 14 15 20 18 21 19 18 22 21 21 19 17 17 15 16 21 23 22 21 20 17 18 19 23 30 30 28 32 39 37 31 38 38 41 45
6 6 5 1 4 5 6 11 7 9 5 5 5 10 14 9 14 16 19 19 23 22 23 21 15 15 15 15 15 17 19 19 20 22 23 22 22 22 27 26 28 29 31 29 26 25 23 37 54
7 4 3 7 4 4 3 5 5 5 9 10 8 11 5 10 12 14 16 14 14 17 16 12 8 6 12 16 18 18 19 20 16 19 20 22 24 26 29 31 32 34 34 35 34 35 33 36 40
4 7 4 1 4 5 4 10 3 4 9 13 18 15 15 15 19 11 14 18 23 24 24 23 19 18 14 9 13 19 23 23 21 23 23 23 24 25 28 30 32 30 31 33 35 34 32 38 41
Wind_Direction
330 340 330 328 45 114 247 253 256 287 306 0 44 73 87 69 127 121 156 137 136 159 157 154 154 151 149 149 149 149 146 146 140 137 139 139 137 135 131 125 120 115 110 108 104 99 96 94 91
326 330 341 263 125 292 265 239 252 333 10 356 60 94 71 70 91 95 129 136 114 138 161 156 157 153 151 149 151 151 149 145 141 140 140 137 135 132 127 122 118 115 112 109 105 101 97 95 92
312 317 305 171 193 223 243 52 306 347 36 357 356 25 94 108 88 92 100 134 132 130 173 160 160 157 154 152 153 153 150 147 147 145 143 139 136 133 129 125 122 120 117 112 107 103 99 94 94
316 307 249 149 261 264 256 285 351 356 356 20 351 74 80 115 99 110 89 127 145 172 177 167 164 162 158 156 154 157 155 154 153 151 147 142 139 136 132 131 131 128 123 119 116 112 105 99 96
282 264 256 258 259 265 272 268 33 337 334 335 356 66 98 85 98 110 123 231 207 207 185 176 168 165 164 160 160 160 159 160 159 157 153 149 145 143 140 140 138 135 134 134 134 131 121 111 102
263 236 249 264 264 260 267 256 167 180 319 317 337 318 83 90 96 99 96 191 242 216 192 181 173 170 168 166 166 166 167 165 165 164 161 158 155 152 152 151 147 148 150 155 163 171 162 170 152
215 253 251 249 257 270 272 260 179 173 179 276 332 24 90 85 79 67 96 83 225 219 201 188 178 174 173 174 172 173 173 172 171 171 169 168 165 165 164 165 162 167 175 187 201 231 251 257 266
234 231 258 255 260 264 268 264 195 175 208 211 357 302 133 89 61 86 69 64 283 209 193 195 184 179 178 178 180 179 180 179 179 179 178 176 175 177 178 179 179 187 201 222 241 260 274 278 278
247 238 244 246 257 270 282 289 195 203 247 231 177 239 130 76 43 79 64 39 95 203 186 188 191 186 184 182 183 186 187 187 188 189 186 184 184 186 190 191 196 208 223 242 259 275 281 283 292
223 241 239 254 267 275 280 286 280 228 213 257 244 220 188 110 166 139 68 3 62 183 183 181 195 195 190 188 187 188 191 193 195 197 195 192 193 196 199 205 214 228 245 258 270 280 281 289 297
238 244 253 248 244 256 266 275 283 240 143 251 262 247 250 121 125 125 104 88 317 114 204 196 195 202 199 194 193 193 194 197 200 202 202 200 202 204 208 213 225 235 254 269 277 282 287 291 292
240 245 240 252 260 260 260 280 290 294 196 211 218 243 256 318 44 193 231 224 241 88 209 206 203 197 206 206 200 202 200 201 205 205 206 210 208 212 213 224 228 240 250 270 286 279 289 285 283
255 257 255 252 248 259 268 273 277 288 299 212 181 207 237 266 260 269 266 271 237 258 203 204 205 198 202 213 205 212 217 211 210 211 211 214 216 219 220 226 234 243 247 258 282 283 285 297 294
269 259 255 256 255 256 256 268 285 281 287 213 230 236 235 237 263 268 236 250 221 203 216 203 201 202 194 204 207 214 226 230 222 217 219 219 222 224 228 231 236 243 252 269 279 289 298 303 310
294 296 295 283 287 262 300 291 269 274 281 282 267 273 218 223 248 246 245 245 228 205 207 201 189 203 196 193 189 205 215 225 229 226 223 229 230 229 229 231 237 244 253 262 271 276 277 285 292
306 296 289 285 285 278 241 261 276 267 260 265 271 264 265 252 232 240 246 243 225 211 216 186 193 196 196 198 209 202 210 219 230 234 228 231 234 237 235 239 241 240 243 244 245 256 262 269 278
265 261 261 270 242 245 209 248 245 242 268 271 258 254 255 246 227 216 221 230 224 199 199 203 192 203 197 199 208 211 214 207 218 220 232 242 239 242 242 242 249 251 249 250 253 259 260 267 274
255 244 244 248 260 247 235 239 230 219 231 259 258 232 211 210 205 211 232 218 205 199 198 216 216 206 206 206 212 214 216 203 208 206 203 229 234 239 244 252 255 255 254 255 260 261 263 272 285
248 265 271 279 297 326 276 204 175 232 259 271 254 231 232 236 236 207 204 202 204 203 211 218 226 219 211 213 217 214 216 214 218 212 214 232 237 242 250 254 253 255 254 257 264 271 270 275 287
266 265 285 306 307 305 294 280 237 220 254 275 277 256 223 222 220 204 208 193 198 206 213 233 228 219 215 217 215 215 219 223 225 242 236 232 235 244 249 250 260 260 261 260 272 280 280 283 283
292 296 308 293 295 294 301 300 253 265 264 260 264 262 252 223 209 201 205 204 205 215 217 222 231 222 217 223 226 219 217 220 215 215 220 237 242 256 247 255 255 262 257 258 269 276 279 288 297
287 291 284 262 274 261 358 281 276 272 282 264 248 243 244 231 215 207 204 208 209 199 200 225 243 245 236 221 225 225 232 226 235 241 244 241 235 263 253 251 252 262 263 262 276 271 273 277 293
266 267 273 314 322 343 301 323 289 273 273 275 265 219 228 229 228 222 206 197 180 179 189 208 230 247 246 234 227 226 232 237 236 231 245 243 241 230 260 241 245 250 258 263 277 268 273 285 302
279 322 347 339 353 292 265 242 280 263 260 270 257 188 150 136 135 153 156 159 165 184 188 199 229 251 249 237 235 237 235 236 242 237 225 235 241 249 247 245 246 257 270 277 269 272 265 269 290
234 128 286 311 288 254 259 274 255 287 267 260 250 145 143 152 155 154 164 166 179 181 195 210 208 224 226 278 278 262 254 250 247 251 239 238 232 236 242 245 252 256 268 275 273 269 264 272 277
307 124 238 201 221 279 320 229 254 266 320 68 109 135 149 150 156 163 177 185 195 207 196 198 202 183 196 244 265 268 269 265 261 266 267 261 253 250 253 254 251 252 255 256 267 263 266 273 255
203 217 219 270 273 357 228 262 276 273 317 116 125 129 138 150 157 158 180 188 190 192 198 194 204 221 251 271 280 271 271 271 271 267 261 261 263 259 260 258 266 258 252 251 254 266 261 254 254
185 168 220 342 193 224 236 245 270 50 27 345 8 142 134 149 165 170 189 174 182 191 187 199 233 250 258 261 273 287 274 271 278 271 267 262 257 253 255 255 253 253 256 252 244 247 248 262 259
343 327 327 188 188 196 289 257 204 89 44 2 58 0 35 137 175 167 158 174 193 195 192 199 219 260 270 272 270 273 276 272 272 272 272 272 266 255 246 249 253 252 258 255 248 237 236 238 256
23 51 91 257 211 267 211 252 252 93 60 28 357 342 309 334 330 251 239 233 214 217 224 227 224 234 240 255 281 280 277 265 258 270 264 271 274 272 266 255 256 259 257 256 248 245 245 246 248